When you browse on this site, cookies collect data to enhance your experience and personalize the content and advertising you see.
Visit our Privacy Policy to learn more. By continuing to use the site, you agree to this use of cookies and data.
  • In Latvia
  • List of Countries
  • For 7 days
  • Water Temperature
  • Satellite Maps
  • Weather Map
  • Weather Widgets
  • user-avatar
    Login

    Hourly Weather Malanje

    Today, 19 January, Saturday

    Time Temperature Precipitation Wind Pressure Humidity
    00:00 +19°C° 1 mm 2 mps 665 mmHg 98%
    01:00 +19°C° 0 mm 2 mps 665 mmHg 99%
    02:00 +19°C° 0.5 mm 2 mps 665 mmHg 98%
    03:00 +19°C° 0.5 mm 3 mps 665 mmHg 98%
    04:00 +19°C° 0.5 mm 3 mps 665 mmHg 98%
    05:00 +19°C° 0.4 mm 3 mps 665 mmHg 98%
    06:00 +19°C° 0.4 mm 2 mps 666 mmHg 98%
    07:00 +19°C° 0 mm 2 mps 666 mmHg 97%
    08:00 +20°C° 0.3 mm 2 mps 666 mmHg 96%
    09:00 +20°C° 0.3 mm 2 mps 666 mmHg 94%
    10:00 +21°C° 0.3 mm 2 mps 667 mmHg 93%
    11:00 +21°C° 0.5 mm 2 mps 666 mmHg 91%
    12:00 +23°C° 0.5 mm 2 mps 666 mmHg 89%
    13:00 +23°C° 0.5 mm 2 mps 666 mmHg 88%
    14:00 +23°C° 0.6 mm 2 mps 666 mmHg 88%
    15:00 +23°C° 0.6 mm 2 mps 665 mmHg 88%
    16:00 +24°C° 0.6 mm 2 mps 665 mmHg 88%
    17:00 +21°C° 0.1 mm 2 mps 665 mmHg 90%
    18:00 +20°C° 0.1 mm 2 mps 665 mmHg 93%
    19:00 +20°C° 0.1 mm 1 mps 666 mmHg 95%
    20:00 +20°C° 0 mm 1 mps 666 mmHg 96%
    21:00 +20°C° 0 mm 1 mps 666 mmHg 96%
    22:00 +19°C° 0 mm 1 mps 666 mmHg 96%
    23:00 +19°C° 0 mm 1 mps 666 mmHg 97%

    Tomorrow, 20 January, Sunday

    Time Temperature Precipitation Wind Pressure Humidity
    00:00 +19°C° 0 mm 1 mps 666 mmHg 98%
    01:00 +19°C° 0 mm 1 mps 665 mmHg 98%
    02:00 +19°C° 0 mm 1 mps 665 mmHg 98%
    03:00 +19°C° 0 mm 1 mps 665 mmHg 98%
    04:00 +18°C° 0 mm 1 mps 665 mmHg 97%
    05:00 +18°C° 0 mm 1 mps 665 mmHg 96%
    06:00 +19°C° 0 mm 1 mps 666 mmHg 96%
    07:00 +19°C° 0 mm 1 mps 666 mmHg 95%
    08:00 +20°C° 0 mm 1 mps 667 mmHg 88%
    09:00 +22°C° 0 mm 1 mps 667 mmHg 82%
    10:00 +23°C° 0 mm 2 mps 668 mmHg 75%
    11:00 +24°C° 0 mm 2 mps 667 mmHg 71%
    12:00 +26°C° 0 mm 3 mps 667 mmHg 66%
    13:00 +27°C° 0 mm 3 mps 666 mmHg 61%
    14:00 +27°C° 0.1 mm 3 mps 666 mmHg 64%
    15:00 +26°C° 0.1 mm 3 mps 665 mmHg 66%
    16:00 +26°C° 0.1 mm 3 mps 665 mmHg 68%
    17:00 +24°C° 0 mm 2 mps 665 mmHg 74%
    18:00 +23°C° 0 mm 2 mps 665 mmHg 81%
    19:00 +21°C° 0 mm 1 mps 665 mmHg 87%
    20:00 +21°C° 0 mm 1 mps 665 mmHg 89%
    21:00 +20°C° 0 mm 1 mps 666 mmHg 91%
    22:00 +19°C° 0 mm 1 mps 666 mmHg 93%
    23:00 +19°C° 0 mm 1 mps 666 mmHg 94%

    Day after tomorrow, 21 January, Monday

    Time Temperature Precipitation Wind Pressure Humidity
    00:00 +19°C° 0 mm 1 mps 666 mmHg 95%
    01:00 +18°C° 0 mm 1 mps 665 mmHg 97%
    02:00 +18°C° 0 mm 1 mps 665 mmHg 97%
    03:00 +18°C° 0 mm 1 mps 665 mmHg 98%
    04:00 +18°C° 0 mm 1 mps 664 mmHg 98%
    05:00 +18°C° 0 mm 1 mps 665 mmHg 96%
    06:00 +19°C° 0 mm 1 mps 666 mmHg 95%
    07:00 +19°C° 0 mm 1 mps 666 mmHg 93%
    08:00 +21°C° 0 mm 1 mps 667 mmHg 85%
    09:00 +23°C° 0 mm 2 mps 667 mmHg 76%
    10:00 +26°C° 0 mm 2 mps 668 mmHg 68%
    11:00 +27°C° 0 mm 2 mps 667 mmHg 64%
    12:00 +27°C° 0 mm 3 mps 667 mmHg 60%
    13:00 +28°C° 0 mm 3 mps 666 mmHg 57%
    14:00 +28°C° 0.1 mm 3 mps 665 mmHg 61%
    15:00 +28°C° 0.1 mm 3 mps 665 mmHg 65%
    16:00 +27°C° 0.1 mm 2 mps 664 mmHg 69%
    17:00 +25°C° 0.1 mm 2 mps 664 mmHg 75%
    18:00 +24°C° 0.1 mm 2 mps 664 mmHg 80%
    19:00 +22°C° 0.1 mm 1 mps 664 mmHg 86%
    20:00 +21°C° 0 mm 1 mps 665 mmHg 87%
    21:00 +21°C° 0 mm 1 mps 666 mmHg 89%
    22:00 +20°C° 0 mm 1 mps 666 mmHg 91%
    23:00 +20°C° 0 mm 1 mps 666 mmHg 92%

    22 January, Tuesday

    Time Temperature Precipitation Wind Pressure Humidity
    00:00 +19°C° 0 mm 1 mps 665 mmHg 94%
    01:00 +19°C° 0 mm 1 mps 665 mmHg 96%
    02:00 +18°C° 0 mm 1 mps 665 mmHg 97%
    03:00 +18°C° 0 mm 1 mps 665 mmHg 97%
    04:00 +18°C° 0 mm 1 mps 664 mmHg 98%
    05:00 +18°C° 0 mm 1 mps 665 mmHg 96%
    06:00 +18°C° 0 mm 1 mps 665 mmHg 94%
    07:00 +19°C° 0 mm 1 mps 666 mmHg 92%
    08:00 +20°C° 0 mm 2 mps 666 mmHg 82%
    09:00 +23°C° 0 mm 2 mps 667 mmHg 71%
    10:00 +26°C° 0 mm 3 mps 667 mmHg 61%
    11:00 +27°C° 0 mm 3 mps 667 mmHg 57%
    12:00 +28°C° 0 mm 4 mps 666 mmHg 54%
    13:00 +29°C° 0 mm 4 mps 666 mmHg 50%
    14:00 +29°C° 0 mm 4 mps 665 mmHg 52%
    15:00 +28°C° 0 mm 4 mps 664 mmHg 54%
    16:00 +28°C° 0 mm 3 mps 664 mmHg 57%
    17:00 +26°C° 0 mm 3 mps 664 mmHg 64%
    18:00 +24°C° 0 mm 2 mps 664 mmHg 71%
    19:00 +22°C° 0 mm 1 mps 664 mmHg 78%
    20:00 +21°C° 0 mm 1 mps 665 mmHg 80%
    21:00 +20°C° 0 mm 1 mps 665 mmHg 82%
    22:00 +20°C° 0 mm 1 mps 665 mmHg 85%
    23:00 +19°C° 0 mm 1 mps 665 mmHg 86%

    23 January, Wednesday

    Time Temperature Precipitation Wind Pressure Humidity
    00:00 +17°C° 0 mm 2 mps 665 mmHg 88%
    01:00 +17°C° 0 mm 2 mps 664 mmHg 90%
    02:00 +17°C° 0 mm 2 mps 664 mmHg 91%
    03:00 +17°C° 0 mm 2 mps 664 mmHg 93%
    04:00 +16°C° 0 mm 1 mps 664 mmHg 94%
    05:00 +18°C° 0 mm 1 mps 664 mmHg 93%
    06:00 +17°C° 0 mm 2 mps 665 mmHg 92%
    07:00 +17°C° 0 mm 2 mps 665 mmHg 91%
    08:00 +19°C° 0 mm 2 mps 665 mmHg 85%
    09:00 +20°C° 0 mm 2 mps 666 mmHg 79%
    10:00 +21°C° 0 mm 3 mps 666 mmHg 74%
    11:00 +22°C° 0 mm 3 mps 666 mmHg 71%
    12:00 +24°C° 0 mm 3 mps 665 mmHg 69%
    13:00 +25°C° 0 mm 3 mps 665 mmHg 66%
    14:00 +26°C° 0 mm 3 mps 664 mmHg 66%
    15:00 +26°C° 0 mm 3 mps 664 mmHg 67%
    16:00 +26°C° 0 mm 3 mps 664 mmHg 67%
    17:00 +24°C° 0 mm 3 mps 664 mmHg 72%
    18:00 +21°C° 0 mm 2 mps 664 mmHg 76%
    19:00 +20°C° 0 mm 2 mps 664 mmHg 80%
    20:00 +19°C° 0 mm 2 mps 664 mmHg 80%
    21:00 +20°C° 0 mm 1 mps 664 mmHg 79%
    22:00 +19°C° 0 mm 1 mps 665 mmHg 79%
    23:00 +19°C° 0 mm 1 mps 664 mmHg 80%

    24 January, Thursday

    Time Temperature Precipitation Wind Pressure Humidity
    00:00 +19°C° 0 mm 1 mps 664 mmHg 81%
    01:00 +19°C° 0 mm 1 mps 664 mmHg 82%
    02:00 +18°C° 0 mm 1 mps 663 mmHg 83%
    03:00 +18°C° 0 mm 1 mps 663 mmHg 85%
    04:00 +18°C° 0 mm 1 mps 663 mmHg 87%
    05:00 +18°C° 0 mm 1 mps 664 mmHg 88%
    06:00 +18°C° 0 mm 1 mps 664 mmHg 88%
    07:00 +19°C° 0 mm 1 mps 664 mmHg 89%
    08:00 +21°C° 0 mm 1 mps 665 mmHg 82%
    09:00 +24°C° 0 mm 2 mps 666 mmHg 74%
    10:00 +26°C° 0 mm 2 mps 666 mmHg 67%
    11:00 +27°C° 0 mm 2 mps 666 mmHg 63%
    12:00 +28°C° 0 mm 2 mps 665 mmHg 60%
    13:00 +29°C° 0 mm 2 mps 665 mmHg 56%
    14:00 +29°C° 0.4 mm 2 mps 664 mmHg 61%
    15:00 +28°C° 0.4 mm 2 mps 664 mmHg 65%
    16:00 +28°C° 0.4 mm 2 mps 663 mmHg 70%
    17:00 +26°C° 0.4 mm 2 mps 663 mmHg 78%
    18:00 +24°C° 0.4 mm 2 mps 663 mmHg 86%
    19:00 +22°C° 0.4 mm 1 mps 663 mmHg 93%
    20:00 +21°C° 0 mm 1 mps 664 mmHg 94%
    21:00 +20°C° 0 mm 1 mps 664 mmHg 95%
    22:00 +20°C° 0 mm 1 mps 664 mmHg 96%
    23:00 +20°C° 0 mm 1 mps 664 mmHg 97%
    Show more